Weather History for KMNM - January, 2013

Change the Weather History Date:

Tuesday, January 8, 2013

  Actual Average Record
Temperature  
Mean Temperature 30 °F -  
Max Temperature 37 °F 22 °F 51 °F (2003)
Min Temperature 23 °F 4 °F -17 °F (1976)
Degree Days  
Heating Degree Days 35    
Moisture  
Dew Point 27 °F    
Average Humidity 83    
Maximum Humidity 100    
Minimum Humidity 70    
Precipitation  
Precipitation 0.00 in - - ()
Sea Level Pressure  
Sea Level Pressure 29.99 in    
Wind  
Wind Speed 7 mph (SSW)    
Max Wind Speed 20 mph    
Max Gust Speed 25 mph    
Visibility 8 miles    
Events      
Averages and records for this station are not official NWS values.
T = Trace of Precipitation, MM = Missing Value Source: NWS Daily Summary

Daily Weather History Graph

Daily Weather History Graph

Search for Another Location

Airport or City:

Trip Planner

Search our weather history database for the weather conditions in past years. The results will help you decide how hot, cold, wet, or windy it might be!

Date:

Astronomy

Jan. 08, 2013 Rise Set
Actual Time 7:28 AM CST 4:26 PM CST
Civil Twilight 6:55 AM CST 5:00 PM CST
Nautical Twilight 6:18 AM CST 5:36 PM CST
Astronomical Twilight 5:42 AM CST 6:12 PM CST
Moon 4:00 AM CST (1/8) 1:29 PM CST (1/8)
Length of Visible Light 10h 04m
Length of Day
8h 58m
Waning Crescent, 13% of the Moon is Illuminated
Jan 8
Waning Crescent
Jan 11
New
Jan 18
First Quarter
Jan 26
Full
Feb 3
Last Quarter

Hourly Weather History & Observations

Time (CST) Temp. Windchill Dew Point Humidity Pressure Visibility Wind Dir Wind Speed Gust Speed Precip Events Conditions
12:15 AM 30.2 °F 22.6 °F 24.8 °F 80% 29.97 in 10.0 mi West 8.1 mph - N/A   Clear
12:55 AM 28.4 °F 21.2 °F 23.0 °F 80% 29.98 in 10.0 mi WSW 6.9 mph - N/A   Clear
1:15 AM 28.4 °F 22.2 °F 24.8 °F 86% 29.98 in 10.0 mi West 5.8 mph - N/A   Clear
1:35 AM 28.4 °F 21.2 °F 24.8 °F 86% 29.98 in 10.0 mi WSW 6.9 mph - N/A   Clear
1:55 AM 28.4 °F 21.2 °F 23.0 °F 80% 30.00 in 10.0 mi WSW 6.9 mph - N/A   Clear
2:15 AM 28.4 °F 21.2 °F 23.0 °F 80% 30.01 in 10.0 mi WSW 6.9 mph - N/A   Partly Cloudy
2:35 AM 28.4 °F 23.3 °F 24.8 °F 86% 30.01 in 10.0 mi West 4.6 mph - N/A   Partly Cloudy
2:55 AM 28.4 °F 23.3 °F 21.2 °F 74% 30.01 in 10.0 mi West 4.6 mph - N/A   Scattered Clouds
3:15 AM 28.4 °F 22.2 °F 23.0 °F 80% 30.01 in 10.0 mi West 5.8 mph - N/A   Unknown
3:35 AM 26.6 °F 21.2 °F 23.0 °F 86% 30.01 in 10.0 mi WSW 4.6 mph - N/A   Scattered Clouds
3:55 AM 26.6 °F 22.6 °F 23.0 °F 86% 30.02 in 10.0 mi West 3.5 mph - N/A   Partly Cloudy
4:15 AM 26.6 °F 21.2 °F 23.0 °F 86% 30.02 in 10.0 mi West 4.6 mph - N/A   Mostly Cloudy
4:35 AM 26.6 °F 21.2 °F 23.0 °F 86% 30.01 in 10.0 mi WSW 4.6 mph - N/A   Scattered Clouds
4:55 AM 26.6 °F 21.2 °F 24.8 °F 93% 30.01 in 10.0 mi WSW 4.6 mph - N/A   Mostly Cloudy
5:15 AM 26.6 °F 21.2 °F 21.2 °F 80% 30.02 in 10.0 mi West 4.6 mph - N/A   Overcast
5:35 AM 26.6 °F 21.2 °F 23.0 °F 86% 30.03 in 10.0 mi WSW 4.6 mph - N/A   Overcast
5:55 AM 26.6 °F 20.0 °F 23.0 °F 86% 30.03 in 10.0 mi SW 5.8 mph - N/A   Overcast
6:15 AM 26.6 °F - 23.0 °F 86% 30.05 in 10.0 mi Calm Calm - N/A   Overcast
6:35 AM 26.6 °F 21.2 °F 21.2 °F 80% 30.05 in 10.0 mi SW 4.6 mph - N/A   Mostly Cloudy
6:55 AM 24.8 °F 20.5 °F 23.0 °F 93% 30.05 in 9.0 mi WSW 3.5 mph - N/A   Partly Cloudy
7:15 AM 23.0 °F 18.4 °F 21.2 °F 93% 30.05 in 7.0 mi SSW 3.5 mph - N/A   Clear
7:35 AM 24.8 °F - 21.2 °F 86% 30.06 in 5.0 mi Calm Calm - N/A   Clear
8:15 AM 23.0 °F 18.4 °F 21.2 °F 93% 30.08 in 5.0 mi WSW 3.5 mph - N/A   Clear
8:35 AM 24.8 °F 20.5 °F 23.0 °F 93% 30.08 in 5.0 mi SW 3.5 mph - N/A   Clear
9:15 AM 24.8 °F 19.1 °F 23.0 °F 93% 30.08 in 7.0 mi South 4.6 mph - N/A   Clear
9:35 AM 26.6 °F 19.1 °F 24.8 °F 93% 30.09 in 7.0 mi SW 6.9 mph - N/A   Clear
9:55 AM 28.4 °F 23.3 °F 24.8 °F 86% 30.09 in 7.0 mi SW 4.6 mph - N/A   Clear
10:15 AM 28.4 °F 24.6 °F 24.8 °F 86% 30.10 in 8.0 mi SSW 3.5 mph - N/A   Clear
10:35 AM 30.2 °F 26.7 °F 24.8 °F 80% 30.09 in 8.0 mi SSW 3.5 mph - N/A   Clear
10:55 AM 30.2 °F 26.7 °F 24.8 °F 80% 30.09 in 8.0 mi SSW 3.5 mph - N/A   Clear
11:15 AM 32.0 °F 25.6 °F 24.8 °F 75% 30.08 in 7.0 mi SW 6.9 mph - N/A   Clear
11:35 AM 33.8 °F 29.6 °F 26.6 °F 75% 30.07 in 8.0 mi SW 4.6 mph - N/A   Clear
11:55 AM 33.8 °F 29.6 °F 24.8 °F 70% 30.06 in 9.0 mi SSW 4.6 mph - N/A   Clear
12:15 PM 35.6 °F - 26.6 °F 70% 30.06 in 9.0 mi Calm Calm - N/A   Clear
12:35 PM 35.6 °F 30.7 °F 26.6 °F 70% 30.05 in 9.0 mi SSE 5.8 mph - N/A   Clear
12:55 PM 33.8 °F 27.7 °F 28.4 °F 81% 30.05 in 7.0 mi SE 6.9 mph - N/A   Clear
1:15 PM 33.8 °F 27.0 °F 26.6 °F 75% 30.04 in 7.0 mi SSE 8.1 mph - N/A   Clear
1:55 PM 35.6 °F 28.6 °F 26.6 °F 70% 30.04 in 9.0 mi SSE 9.2 mph - N/A   Clear
2:15 PM 35.6 °F 29.9 °F 26.6 °F 70% 30.04 in 8.0 mi SSE 6.9 mph - N/A   Clear
2:35 PM 33.8 °F 27.7 °F 26.6 °F 75% 30.04 in 8.0 mi SE 6.9 mph - N/A   Clear
2:55 PM 33.8 °F 27.0 °F 26.6 °F 75% 30.04 in 7.0 mi SSE 8.1 mph - N/A   Clear
3:15 PM 33.8 °F 28.6 °F 26.6 °F 75% 30.03 in 6.0 mi SE 5.8 mph - N/A   Clear
3:35 PM 30.2 °F 24.3 °F 26.6 °F 86% 30.03 in 5.0 mi ESE 5.8 mph - N/A   Clear
3:55 PM 30.2 °F 24.3 °F 26.6 °F 86% 30.02 in 4.0 mi SE 5.8 mph - N/A   Clear
4:15 PM 30.2 °F 23.4 °F 30.2 °F 100% 30.01 in 3.0 mi SSE 6.9 mph - N/A   Clear
4:35 PM 33.8 °F 27.0 °F 30.2 °F 87% 30.00 in 3.0 mi SSE 8.1 mph - N/A   Partly Cloudy
4:55 PM 33.8 °F 27.0 °F 30.2 °F 87% 29.99 in 3.0 mi South 8.1 mph - N/A   Clear
5:15 PM 33.8 °F 26.4 °F 30.2 °F 87% 29.98 in 4.0 mi South 9.2 mph - N/A   Clear
5:35 PM 33.8 °F 26.4 °F 32.0 °F 93% 29.96 in 4.0 mi South 9.2 mph - N/A   Clear
5:55 PM 33.8 °F 24.8 °F 32.0 °F 93% 29.95 in 5.0 mi South 12.7 mph - N/A   Clear
6:15 PM 35.6 °F 26.6 °F 33.8 °F 93% 29.94 in 5.0 mi South 13.8 mph 17.3 mph N/A   Clear
6:35 PM 35.6 °F 26.6 °F 32.0 °F 87% 29.93 in 5.0 mi South 13.8 mph 19.6 mph N/A   Clear
6:55 PM 35.6 °F 26.6 °F 32.0 °F 87% 29.93 in 5.0 mi South 13.8 mph 19.6 mph N/A   Clear
7:15 PM 35.6 °F 27.1 °F 33.8 °F 93% 29.92 in 5.0 mi South 12.7 mph - N/A   Clear
7:35 PM 35.6 °F 27.1 °F 32.0 °F 87% 29.91 in 6.0 mi South 12.7 mph 17.3 mph N/A   Clear
7:55 PM 35.6 °F 27.1 °F 32.0 °F 87% 29.90 in 7.0 mi SSW 12.7 mph 16.1 mph N/A   Clear
8:15 PM 35.6 °F 27.1 °F 33.8 °F 93% 29.90 in 7.0 mi South 12.7 mph 19.6 mph N/A   Clear
8:35 PM 35.6 °F 28.0 °F 30.2 °F 81% 29.89 in 7.0 mi South 10.4 mph - N/A   Mostly Cloudy
8:55 PM 37.4 °F 28.2 °F 30.2 °F 75% 29.87 in 8.0 mi SSW 16.1 mph 21.9 mph N/A   Overcast
9:15 PM 37.4 °F 27.5 °F 30.2 °F 75% 29.86 in 10.0 mi SSW 18.4 mph 24.2 mph N/A   Overcast
9:35 PM 37.4 °F 27.2 °F 30.2 °F 75% 29.86 in 10.0 mi SW 19.6 mph 24.2 mph N/A   Overcast
9:55 PM 37.4 °F 27.2 °F 30.2 °F 75% 29.85 in 9.0 mi SW 19.6 mph 24.2 mph N/A   Overcast
10:15 PM 37.4 °F 27.5 °F 28.4 °F 70% 29.85 in 8.0 mi SW 18.4 mph 25.3 mph N/A   Overcast
10:35 PM 37.4 °F 27.8 °F 28.4 °F 70% 29.85 in 9.0 mi SW 17.3 mph 21.9 mph N/A   Overcast
10:55 PM 37.4 °F 27.8 °F 28.4 °F 70% 29.84 in 10.0 mi SW 17.3 mph 20.7 mph N/A   Scattered Clouds
11:15 PM 35.6 °F 26.2 °F 28.4 °F 75% 29.84 in 10.0 mi SW 15.0 mph - N/A   Clear
11:55 PM 37.4 °F 29.3 °F 30.2 °F 75% 29.81 in 10.0 mi WSW 12.7 mph 18.4 mph N/A   Mostly Cloudy